Zurück zum Katalog

FENGYUN 1C DEB

AktivPO
NORAD 30048·DEBRIS·🇨🇳 China

Gestartet May 10, 1999 von Taiyuan Satellite Launch Center

Loading…

Nächste Überflüge (nächste 24 Stunden)

TLE

AktuellSource: Space-Track

Epoche: Sep 14, 2026, 13:08 UTC

1 30048U 99025NZ  26257.54770905  .00000152  00000-0  16168-3 0  9992
2 30048  98.6350 105.0471 0185973 219.7426 168.2364 13.80037733989304

Verfolge FENGYUN 1C DEB in Echtzeit mit AllMySat

Download on the App Store